Almere Haven Meer informatie Almere Haven


Onweer radar Meer informatie blitzortung!


Regen radar Meer informatie rain snow radar


Apparatuur in gebruik:

Davis VP2

Meteohub

ALIX 1D

Web-Oke


Het weer levert geen direct gevaar op.    Er zijn geen waarschuwingen afgegeven.

Select another period ( hide this area )

Eenheden Periode Custom range Directly to
Metrisch Engels Beide
Dagelijkse Wekelijkse Maandelijkse Jaarlijkse
use both date-selectors for a custom range
previous Dag
With this date

WeatherUnderground graphs for this period ( click here )


Dagelijkse Samenvatting Vrijdag Dec 6 2019
Tijd Temp. ( °C ) Dew pt. ( °C ) Wind ( km/h ) van Windvlaag ( km/h ) Luchtdruk ( hPa ) Humid.( % ) Rainrate ( cm ) Zonneschijn ( W/m2 )
Hoog7,6 6,2 35,4 ZW ( 1616/3945 ) 51,5 1012,8 92 1,00 35
Gemiddeld5,7 4,2 21,7 ZW #71/182 41,0 1008,4 90 0,90 19 #75/182
Laag4,7 3,3 9,7   30,6 1002,9 89 -  
Dagelijkse Tabular details for Vrijdag Dec 6 2019
Tijd Temp. ( °C ) Dew pt. ( °C ) Wind ( km/h ) van Windvlaag ( km/h ) Luchtdruk ( hPa ) Humid.( % ) Rainrate ( cm ) Zonneschijn ( W/m2 )
00:00 4,7 3,5 29,0 ZW 40,2 1012,8 92 0,30 -
00:05 4,7 3,5 16,1 ZW 40,2 1012,8 92 0,30 -
00:10 4,8 3,5 14,5 ZW 40,2 1012,8 91 0,30 -
00:15 4,8 3,5 14,5 Zuiden 40,2 1012,8 91 0,30 -
00:20 4,9 3,6 14,5 ZZW 37,0 1012,4 91 0,30 -
00:25 4,8 3,5 27,4 ZW 37,0 1012,4 91 0,30 -
00:30 4,9 3,6 24,1 ZZW 37,0 1012,1 91 - -
00:35 4,9 3,6 25,7 ZW 33,8 1012,1 91 - -
00:40 4,9 3,6 29,0 WZW 33,8 1012,1 91 - -
00:45 4,9 3,6 27,4 Westen 45,1 1012,1 91 - -
00:50 4,9 3,6 11,3 ZW 45,1 1012,1 91 - -
00:55 4,9 3,6 27,4 Zuiden 45,1 1011,7 91 - -
01:00 4,9 3,4 19,3 Zuiden 41,8 1012,1 90 - -
01:05 4,9 3,4 14,5 ZZW 48,3 1012,1 90 - -
01:10 4,9 3,4 29,0 Zuiden 48,3 1011,7 90 - -
01:15 4,9 3,4 19,3 ZZW 48,3 1011,7 90 - -
01:20 4,9 3,4 25,7 ZZW 35,4 1011,7 90 - -
01:25 4,9 3,4 30,6 ZW 38,6 1011,7 90 - -
01:30 4,9 3,4 29,0 ZW 38,6 1011,7 90 - -
01:35 4,9 3,4 25,7 ZZW 38,6 1011,7 90 - -
01:40 4,9 3,4 33,8 WZW 38,6 1011,4 90 - -
01:45 4,9 3,4 20,9 WZW 43,4 1011,4 90 - -
01:50 4,9 3,4 27,4 ZW 43,4 1011,4 90 - -
01:55 5,0 3,5 16,1 Westen 43,4 1011,4 90 - -
02:00 5,0 3,3 17,7 Westen 38,6 1011,4 89 - -
02:05 5,1 3,4 27,4 Westen 38,6 1011,4 89 - -
02:10 5,1 3,4 30,6 WZW 41,8 1011,4 89 - -
02:15 5,1 3,4 14,5 ZZW 45,1 1011,1 89 - -
02:20 5,1 3,4 25,7 ZW 45,1 1011,1 89 - -
02:25 5,1 3,4 27,4 ZZO 45,1 1011,1 89 - -
02:30 5,1 3,4 19,3 ZZW 46,7 1011,1 89 - -
02:35 5,1 3,4 27,4 Zuiden 46,7 1011,1 89 - -
02:40 5,1 3,4 14,5 Zuiden 46,7 1011,1 89 - -
02:45 5,1 3,4 16,1 ZZW 37,0 1011,1 89 - -
02:50 5,1 3,4 29,0 ZW 35,4 1011,1 89 - -
02:55 5,1 3,4 22,5 ZW 33,8 1011,1 89 - -
03:00 5,1 3,4 17,7 Zuiden 40,2 1011,1 89 - -
03:05 5,1 3,4 27,4 ZW 40,2 1010,7 89 - -
03:10 5,1 3,4 20,9 ZW 37,0 1010,7 89 - -
03:15 5,1 3,4 30,6 WZW 37,0 1010,7 89 - -
03:20 5,2 3,5 24,1 ZZW 35,4 1010,7 89 - -
03:25 5,1 3,4 22,5 ZZW 35,4 1010,7 89 - -
03:30 5,1 3,4 17,7 Zuiden 40,2 1010,7 89 - -
03:35 5,1 3,4 19,3 ZW 40,2 1010,4 89 - -
03:40 5,1 3,4 24,1 ZW 40,2 1010,4 89 - -
03:45 5,1 3,4 24,1 Zuiden 45,1 1010,4 89 - -
03:50 5,2 3,5 29,0 ZW 45,1 1010,4 89 - -
03:55 5,1 3,4 25,7 WZW 45,1 1010,0 89 - -
04:00 5,1 3,4 17,7 Zuiden 40,2 1010,0 89 - -
04:05 5,2 3,5 33,8 ZW 41,8 1010,0 89 - -
04:10 5,2 3,5 19,3 ZW 41,8 1010,0 89 - -
04:15 5,2 3,5 29,0 Zuiden 41,8 1010,0 89 - -
04:20 5,1 3,4 32,2 WZW 40,2 1010,0 89 - -
04:25 5,1 3,6 19,3 ZW 40,2 1010,0 90 - -
04:30 5,2 3,7 12,9 ZZW 40,2 1010,0 90 - -
04:35 5,2 3,7 17,7 ZO 37,0 1010,0 90 - -
04:40 5,2 3,7 16,1 ZW 35,4 1010,0 90 - -
04:45 5,2 3,7 17,7 ZZW 38,6 1009,7 90 - -
04:50 5,1 3,6 29,0 ZW 38,6 1009,7 90 - -
04:55 5,1 3,6 30,6 ZZO 35,4 1009,7 90 - -
05:00 5,1 3,6 24,1 ZW 35,4 1009,7 90 - -
05:05 5,2 3,7 14,5 WZW 40,2 1009,7 90 0,30 -
05:10 5,2 3,7 24,1 ZZW 40,2 1009,4 90 0,30 -
05:15 5,2 3,7 25,7 ZW 40,2 1009,4 90 0,30 -
05:20 5,2 3,7 24,1 ZZW 38,6 1009,4 90 0,30 -
05:25 5,3 3,8 20,9 ZZW 37,0 1009,4 90 0,30 -
05:30 5,3 3,8 17,7 ZW 37,0 1009,4 90 0,30 -
05:35 5,4 3,9 19,3 Zuiden 37,0 1009,4 90 0,30 -
05:40 5,4 3,9 22,5 ZZW 38,6 1009,4 90 0,30 -
05:45 5,5 4,0 20,9 ZW 38,6 1009,4 90 0,30 -
05:50 5,5 4,0 17,7 Zuiden 38,6 1009,4 90 0,30 -
05:55 5,6 4,1 12,9 ZW 41,8 1009,4 90 0,30 -
06:00 5,6 4,1 17,7 ZW 41,8 1009,4 90 0,30 -
06:05 5,6 4,1 25,7 ZZW 41,8 1009,4 90 - -
06:10 5,6 4,1 14,5 ZZW 38,6 1009,0 90 - -
06:15 5,6 4,1 27,4 Zuiden 43,4 1009,0 90 - -
06:20 5,5 4,0 19,3 ZW 43,4 1009,0 90 - -
06:25 5,5 4,0 24,1 ZW 43,4 1009,0 90 - -
06:30 5,4 3,9 20,9 ZZW 41,8 1009,4 90 - -
06:35 5,4 3,9 19,3 ZW 41,8 1009,0 90 - -
06:40 5,3 3,8 12,9 ZW 33,8 1009,0 90 - -
06:45 5,3 3,8 19,3 ZW 33,8 1009,0 90 - -
06:50 5,3 3,8 22,5 ZW 33,8 1009,0 90 - -
06:55 5,3 3,8 14,5 ZZW 30,6 1009,4 90 - -
07:00 5,3 3,8 11,3 ZZW 37,0 1009,0 90 - -
07:05 5,3 3,8 14,5 ZZW 37,0 1009,4 90 - -
07:10 5,3 3,8 16,1 ZW 41,8 1009,0 90 - -
07:15 5,3 3,8 9,7 Zuiden 41,8 1009,0 90 - -
07:20 5,2 3,7 16,1 ZZW 35,4 1009,0 90 - -
07:25 5,2 3,7 11,3 ZZO 32,2 1009,0 90 - -
07:30 5,2 3,7 19,3 ZW 33,8 1009,0 90 - -
07:35 5,2 3,7 32,2 ZW 33,8 1009,0 90 - -
07:40 5,3 3,8 16,1 ZZW 33,8 1008,7 90 - -
07:45 5,3 3,8 9,7 ZZW 43,4 1009,0 90 - -
07:50 5,3 3,8 16,1 ZW 43,4 1008,7 90 - -
07:55 5,3 3,8 19,3 WZW 43,4 1008,7 90 - -
08:00 5,3 3,8 16,1 Zuiden 43,4 1008,7 90 - -
08:05 5,3 3,8 11,3 ZZW 33,8 1008,4 90 - -
08:10 5,3 3,8 33,8 ZW 35,4 1008,4 90 - -
08:15 5,2 3,7 19,3 ZW 35,4 1008,4 90 - -
08:20 5,2 3,7 20,9 ZW 33,8 1008,4 90 - -
08:25 5,2 3,7 12,9 WZW 48,3 1008,4 90 0,30 -
08:30 5,2 3,7 20,9 ZW 48,3 1008,4 90 0,30 -
08:35 5,2 3,7 12,9 ZZW 38,6 1008,4 90 0,30 -
08:40 5,2 3,7 22,5 ZW 38,6 1008,4 90 0,30 -
08:45 5,2 3,7 30,6 ZW 45,1 1008,4 90 0,30 -
08:50 5,2 3,9 20,9 ZZW 45,1 1008,4 91 0,30 -
08:55 5,2 3,9 27,4 ZZW 45,1 1008,4 91 0,30 5
09:00 5,3 4,0 24,1 Westen 40,2 1008,0 91 0,30 5
09:05 5,3 4,0 19,3 ZW 40,2 1008,0 91 0,30 7
09:10 5,3 4,0 20,9 ZZW 45,1 1008,0 91 0,30 9
09:15 5,4 4,0 16,1 Zuiden 45,1 1008,0 91 0,30 7
09:20 5,4 4,0 29,0 Zuiden 45,1 1008,0 91 - 7
09:25 5,4 4,0 19,3 ZZW 38,6 1008,0 91 - 9
09:30 5,5 4,1 24,1 ZZW 38,6 1008,0 91 0,30 7
09:35 5,6 4,2 33,8 ZZW 38,6 1008,0 91 0,30 7
09:40 5,7 4,3 17,7 Westen 37,0 1008,0 91 0,30 9
09:45 5,7 4,3 20,9 WZW 43,4 1007,7 91 0,30 9
09:50 5,7 4,3 29,0 ZZO 43,4 1007,7 91 0,30 11
09:55 5,7 4,3 14,5 WZW 46,7 1007,7 91 0,30 9
10:00 5,8 4,4 14,5 Zuiden 46,7 1007,7 91 0,30 14
10:05 5,8 4,4 17,7 ZW 46,7 1007,3 91 0,30 18
10:10 5,8 4,4 24,1 ZZW 45,1 1007,3 91 0,30 14
10:15 5,9 4,5 14,5 WZW 45,1 1007,3 91 0,30 14
10:20 5,9 4,5 35,4 Zuiden 38,6 1007,3 91 0,30 19
10:25 5,9 4,5 25,7 Zuiden 38,6 1007,3 91 - 21
10:30 5,9 4,5 29,0 Zuiden 41,8 1007,3 91 - 19
10:35 6,0 4,6 27,4 ZW 41,8 1007,3 91 - 21
10:40 6,0 4,6 22,5 ZZW 41,8 1007,3 91 - 19
10:45 6,0 4,6 24,1 ZW 38,6 1007,3 91 - 19
10:50 6,1 4,7 14,5 ZW 38,6 1007,3 91 - 28
10:55 6,1 4,7 33,8 ZZW 35,4 1007,3 91 - 30
11:00 6,1 4,7 25,7 ZZO 43,4 1007,0 91 - 25
11:05 6,2 4,8 16,1 ZW 43,4 1007,0 91 - 25
11:10 6,2 4,8 17,7 Zuiden 43,4 1007,0 91 - 25
11:15 6,2 4,8 14,5 ZZO 51,5 1007,0 91 - 32
11:20 6,2 4,8 14,5 ZW 51,5 1007,0 91 - 25
11:25 6,2 4,8 32,2 WZW 51,5 1006,7 91 - 23
11:30 6,3 4,9 11,3 ZZW 37,0 1006,7 91 - 25
11:35 6,2 4,8 19,3 ZZW 38,6 1006,7 91 - 19
11:40 6,2 4,8 17,7 WZW 38,6 1006,3 91 - 32
11:45 6,2 4,8 27,4 ZW 38,6 1006,7 91 - 32
11:50 6,2 4,8 25,7 ZZW 43,4 1006,3 91 - 28
11:55 6,2 4,8 20,9 ZW 43,4 1006,3 91 - 26
12:00 6,2 4,8 9,7 ZW 43,4 1006,3 91 0,30 32
12:05 6,2 4,8 11,3 ZZW 38,6 1006,0 91 0,30 23
12:10 6,3 4,9 27,4 ZZO 38,6 1006,0 91 0,50 16
12:15 6,3 4,9 22,5 ZW 40,2 1006,0 91 0,50 18
12:20 6,4 5,0 17,7 ZW 40,2 1006,0 91 0,50 18
12:25 6,4 5,0 22,5 Zuiden 43,4 1005,6 91 0,80 21
12:30 6,4 5,0 14,5 ZZW 43,4 1005,6 91 0,80 23
12:35 6,5 5,1 27,4 ZW 43,4 1005,6 91 0,80 26
12:40 6,5 5,1 25,7 ZW 43,4 1005,3 91 1,00 33
12:45 6,6 5,2 25,7 ZZW 43,4 1005,3 91 1,00 35
12:50 6,6 5,2 27,4 ZZW 43,4 1005,3 91 1,00 21
12:55 6,6 5,2 19,3 ZZW 43,4 1005,0 91 1,00 16
13:00 6,6 5,2 17,7 ZZW 40,2 1005,0 91 0,80 19
13:05 6,7 5,3 35,4 ZW 41,8 1005,0 91 0,80 30
13:10 6,7 5,3 16,1 ZZW 41,8 1005,0 91 0,80 26
13:15 6,7 5,3 22,5 ZZW 43,4 1005,0 91 1,00 25
13:20 6,7 5,3 17,7 ZW 43,4 1004,6 91 0,80 23
13:25 6,7 5,3 30,6 WZW 43,4 1005,0 91 0,50 25
13:30 6,7 5,2 22,5 Westen 43,4 1004,3 90 0,50 30
13:35 6,8 5,3 29,0 ZW 43,4 1004,3 90 0,80 26
13:40 6,9 5,4 30,6 ZW 38,6 1004,3 90 0,50 25
13:45 6,9 5,5 11,3 Zuiden 43,4 1004,3 91 0,50 23
13:50 7,0 5,5 35,4 ZW 43,4 1004,3 90 0,50 18
13:55 7,1 5,6 14,5 ZW 45,1 1004,3 90 0,50 18
14:00 7,1 5,6 22,5 ZW 45,1 1003,9 90 0,50 19
14:05 7,1 5,6 16,1 Westen 45,1 1003,9 90 0,50 19
14:10 7,2 5,8 29,0 ZW 35,4 1003,9 91 0,30 21
14:15 7,2 5,8 16,1 WZW 38,6 1003,9 91 0,30 16
14:20 7,3 5,9 20,9 ZZW 41,8 1003,9 91 0,30 16
14:25 7,3 5,9 25,7 WZW 43,4 1003,6 91 0,30 16
14:30 7,3 5,9 25,7 ZW 43,4 1003,6 91 0,30 11
14:35 7,4 6,0 24,1 Westen 43,4 1003,6 91 - 12
14:40 7,5 6,1 27,4 ZW 51,5 1003,6 91 - 12
14:45 7,6 6,2 12,9 WZW 51,5 1003,6 91 - 12
14:50 7,6 6,2 16,1 ZW 51,5 1003,3 91 - 14
14:55 7,6 6,2 19,3 Zuiden 40,2 1003,3 91 - 19
15:00 7,6 6,2 20,9 ZW 40,2 1002,9 91 - 19
15:05 7,6 6,2 32,2 ZW 40,2 1002,9 91 0,30 18
Dagelijkse Samenvatting Vrijdag Dec 6 2019
Tijd Temp. ( °C ) Dew pt. ( °C ) Wind ( km/h ) van Windvlaag ( km/h ) Luchtdruk ( hPa ) Humid.( % ) Rainrate ( cm ) Zonneschijn ( W/m2 )
Hoog7,6 6,2 35,4 ZW ( 1616/3945 ) 51,5 1012,8 92 1,00 35
Gemiddeld5,7 4,2 21,7 ZW #71/182 41,0 1008,4 90 0,90 19 #75/182
Laag4,7 3,3 9,7   30,6 1002,9 89 -  
Dagelijkse Tabular details for Vrijdag Dec 6 2019
Tijd Temp. ( °C ) Dew pt. ( °C ) Wind ( km/h ) van Windvlaag ( km/h ) Luchtdruk ( hPa ) Humid.( % ) Rainrate ( cm ) Zonneschijn ( W/m2 )
00:00 4,7 3,5 29,0 ZW 40,2 1012,8 92 0,30 -
00:05 4,7 3,5 16,1 ZW 40,2 1012,8 92 0,30 -
00:10 4,8 3,5 14,5 ZW 40,2 1012,8 91 0,30 -
00:15 4,8 3,5 14,5 Zuiden 40,2 1012,8 91 0,30 -
00:20 4,9 3,6 14,5 ZZW 37,0 1012,4 91 0,30 -
00:25 4,8 3,5 27,4 ZW 37,0 1012,4 91 0,30 -
00:30 4,9 3,6 24,1 ZZW 37,0 1012,1 91 - -
00:35 4,9 3,6 25,7 ZW 33,8 1012,1 91 - -
00:40 4,9 3,6 29,0 WZW 33,8 1012,1 91 - -
00:45 4,9 3,6 27,4 Westen 45,1 1012,1 91 - -
00:50 4,9 3,6 11,3 ZW 45,1 1012,1 91 - -
00:55 4,9 3,6 27,4 Zuiden 45,1 1011,7 91 - -
01:00 4,9 3,4 19,3 Zuiden 41,8 1012,1 90 - -
01:05 4,9 3,4 14,5 ZZW 48,3 1012,1 90 - -
01:10 4,9 3,4 29,0 Zuiden 48,3 1011,7 90 - -
01:15 4,9 3,4 19,3 ZZW 48,3 1011,7 90 - -
01:20 4,9 3,4 25,7 ZZW 35,4 1011,7 90 - -
01:25 4,9 3,4 30,6 ZW 38,6 1011,7 90 - -
01:30 4,9 3,4 29,0 ZW 38,6 1011,7 90 - -
01:35 4,9 3,4 25,7 ZZW 38,6 1011,7 90 - -
01:40 4,9 3,4 33,8 WZW 38,6 1011,4 90 - -
01:45 4,9 3,4 20,9 WZW 43,4 1011,4 90 - -
01:50 4,9 3,4 27,4 ZW 43,4 1011,4 90 - -
01:55 5,0 3,5 16,1 Westen 43,4 1011,4 90 - -
02:00 5,0 3,3 17,7 Westen 38,6 1011,4 89 - -
02:05 5,1 3,4 27,4 Westen 38,6 1011,4 89 - -
02:10 5,1 3,4 30,6 WZW 41,8 1011,4 89 - -
02:15 5,1 3,4 14,5 ZZW 45,1 1011,1 89 - -
02:20 5,1 3,4 25,7 ZW 45,1 1011,1 89 - -
02:25 5,1 3,4 27,4 ZZO 45,1 1011,1 89 - -
02:30 5,1 3,4 19,3 ZZW 46,7 1011,1 89 - -
02:35 5,1 3,4 27,4 Zuiden 46,7 1011,1 89 - -
02:40 5,1 3,4 14,5 Zuiden 46,7 1011,1 89 - -
02:45 5,1 3,4 16,1 ZZW 37,0 1011,1 89 - -
02:50 5,1 3,4 29,0 ZW 35,4 1011,1 89 - -
02:55 5,1 3,4 22,5 ZW 33,8 1011,1 89 - -
03:00 5,1 3,4 17,7 Zuiden 40,2 1011,1 89 - -
03:05 5,1 3,4 27,4 ZW 40,2 1010,7 89 - -
03:10 5,1 3,4 20,9 ZW 37,0 1010,7 89 - -
03:15 5,1 3,4 30,6 WZW 37,0 1010,7 89 - -
03:20 5,2 3,5 24,1 ZZW 35,4 1010,7 89 - -
03:25 5,1 3,4 22,5 ZZW 35,4 1010,7 89 - -
03:30 5,1 3,4 17,7 Zuiden 40,2 1010,7 89 - -
03:35 5,1 3,4 19,3 ZW 40,2 1010,4 89 - -
03:40 5,1 3,4 24,1 ZW 40,2 1010,4 89 - -
03:45 5,1 3,4 24,1 Zuiden 45,1 1010,4 89 - -
03:50 5,2 3,5 29,0 ZW 45,1 1010,4 89 - -
03:55 5,1 3,4 25,7 WZW 45,1 1010,0 89 - -
04:00 5,1 3,4 17,7 Zuiden 40,2 1010,0 89 - -
04:05 5,2 3,5 33,8 ZW 41,8 1010,0 89 - -
04:10 5,2 3,5 19,3 ZW 41,8 1010,0 89 - -
04:15 5,2 3,5 29,0 Zuiden 41,8 1010,0 89 - -
04:20 5,1 3,4 32,2 WZW 40,2 1010,0 89 - -
04:25 5,1 3,6 19,3 ZW 40,2 1010,0 90 - -
04:30 5,2 3,7 12,9 ZZW 40,2 1010,0 90 - -
04:35 5,2 3,7 17,7 ZO 37,0 1010,0 90 - -
04:40 5,2 3,7 16,1 ZW 35,4 1010,0 90 - -
04:45 5,2 3,7 17,7 ZZW 38,6 1009,7 90 - -
04:50 5,1 3,6 29,0 ZW 38,6 1009,7 90 - -
04:55 5,1 3,6 30,6 ZZO 35,4 1009,7 90 - -
05:00 5,1 3,6 24,1 ZW 35,4 1009,7 90 - -
05:05 5,2 3,7 14,5 WZW 40,2 1009,7 90 0,30 -
05:10 5,2 3,7 24,1 ZZW 40,2 1009,4 90 0,30 -
05:15 5,2 3,7 25,7 ZW 40,2 1009,4 90 0,30 -
05:20 5,2 3,7 24,1 ZZW 38,6 1009,4 90 0,30 -
05:25 5,3 3,8 20,9 ZZW 37,0 1009,4 90 0,30 -
05:30 5,3 3,8 17,7 ZW 37,0 1009,4 90 0,30 -
05:35 5,4 3,9 19,3 Zuiden 37,0 1009,4 90 0,30 -
05:40 5,4 3,9 22,5 ZZW 38,6 1009,4 90 0,30 -
05:45 5,5 4,0 20,9 ZW 38,6 1009,4 90 0,30 -
05:50 5,5 4,0 17,7 Zuiden 38,6 1009,4 90 0,30 -
05:55 5,6 4,1 12,9 ZW 41,8 1009,4 90 0,30 -
06:00 5,6 4,1 17,7 ZW 41,8 1009,4 90 0,30 -
06:05 5,6 4,1 25,7 ZZW 41,8 1009,4 90 - -
06:10 5,6 4,1 14,5 ZZW 38,6 1009,0 90 - -
06:15 5,6 4,1 27,4 Zuiden 43,4 1009,0 90 - -
06:20 5,5 4,0 19,3 ZW 43,4 1009,0 90 - -
06:25 5,5 4,0 24,1 ZW 43,4 1009,0 90 - -
06:30 5,4 3,9 20,9 ZZW 41,8 1009,4 90 - -
06:35 5,4 3,9 19,3 ZW 41,8 1009,0 90 - -
06:40 5,3 3,8 12,9 ZW 33,8 1009,0 90 - -
06:45 5,3 3,8 19,3 ZW 33,8 1009,0 90 - -
06:50 5,3 3,8 22,5 ZW 33,8 1009,0 90 - -
06:55 5,3 3,8 14,5 ZZW 30,6 1009,4 90 - -
07:00 5,3 3,8 11,3 ZZW 37,0 1009,0 90 - -
07:05 5,3 3,8 14,5 ZZW 37,0 1009,4 90 - -
07:10 5,3 3,8 16,1 ZW 41,8 1009,0 90 - -
07:15 5,3 3,8 9,7 Zuiden 41,8 1009,0 90 - -
07:20 5,2 3,7 16,1 ZZW 35,4 1009,0 90 - -
07:25 5,2 3,7 11,3 ZZO 32,2 1009,0 90 - -
07:30 5,2 3,7 19,3 ZW 33,8 1009,0 90 - -
07:35 5,2 3,7 32,2 ZW 33,8 1009,0 90 - -
07:40 5,3 3,8 16,1 ZZW 33,8 1008,7 90 - -
07:45 5,3 3,8 9,7 ZZW 43,4 1009,0 90 - -
07:50 5,3 3,8 16,1 ZW 43,4 1008,7 90 - -
07:55 5,3 3,8 19,3 WZW 43,4 1008,7 90 - -
08:00 5,3 3,8 16,1 Zuiden 43,4 1008,7 90 - -
08:05 5,3 3,8 11,3 ZZW 33,8 1008,4 90 - -
08:10 5,3 3,8 33,8 ZW 35,4 1008,4 90 - -
08:15 5,2 3,7 19,3 ZW 35,4 1008,4 90 - -
08:20 5,2 3,7 20,9 ZW 33,8 1008,4 90 - -
08:25 5,2 3,7 12,9 WZW 48,3 1008,4 90 0,30 -
08:30 5,2 3,7 20,9 ZW 48,3 1008,4 90 0,30 -
08:35 5,2 3,7 12,9 ZZW 38,6 1008,4 90 0,30 -
08:40 5,2 3,7 22,5 ZW 38,6 1008,4 90 0,30 -
08:45 5,2 3,7 30,6 ZW 45,1 1008,4 90 0,30 -
08:50 5,2 3,9 20,9 ZZW 45,1 1008,4 91 0,30 -
08:55 5,2 3,9 27,4 ZZW 45,1 1008,4 91 0,30 5
09:00 5,3 4,0 24,1 Westen 40,2 1008,0 91 0,30 5
09:05 5,3 4,0 19,3 ZW 40,2 1008,0 91 0,30 7
09:10 5,3 4,0 20,9 ZZW 45,1 1008,0 91 0,30 9
09:15 5,4 4,0 16,1 Zuiden 45,1 1008,0 91 0,30 7
09:20 5,4 4,0 29,0 Zuiden 45,1 1008,0 91 - 7
09:25 5,4 4,0 19,3 ZZW 38,6 1008,0 91 - 9
09:30 5,5 4,1 24,1 ZZW 38,6 1008,0 91 0,30 7
09:35 5,6 4,2 33,8 ZZW 38,6 1008,0 91 0,30 7
09:40 5,7 4,3 17,7 Westen 37,0 1008,0 91 0,30 9
09:45 5,7 4,3 20,9 WZW 43,4 1007,7 91 0,30 9
09:50 5,7 4,3 29,0 ZZO 43,4 1007,7 91 0,30 11
09:55 5,7 4,3 14,5 WZW 46,7 1007,7 91 0,30 9
10:00 5,8 4,4 14,5 Zuiden 46,7 1007,7 91 0,30 14
10:05 5,8 4,4 17,7 ZW 46,7 1007,3 91 0,30 18
10:10 5,8 4,4 24,1 ZZW 45,1 1007,3 91 0,30 14
10:15 5,9 4,5 14,5 WZW 45,1 1007,3 91 0,30 14
10:20 5,9 4,5 35,4 Zuiden 38,6 1007,3 91 0,30 19
10:25 5,9 4,5 25,7 Zuiden 38,6 1007,3 91 - 21
10:30 5,9 4,5 29,0 Zuiden 41,8 1007,3 91 - 19
10:35 6,0 4,6 27,4 ZW 41,8 1007,3 91 - 21
10:40 6,0 4,6 22,5 ZZW 41,8 1007,3 91 - 19
10:45 6,0 4,6 24,1 ZW 38,6 1007,3 91 - 19
10:50 6,1 4,7 14,5 ZW 38,6 1007,3 91 - 28
10:55 6,1 4,7 33,8 ZZW 35,4 1007,3 91 - 30
11:00 6,1 4,7 25,7 ZZO 43,4 1007,0 91 - 25
11:05 6,2 4,8 16,1 ZW 43,4 1007,0 91 - 25
11:10 6,2 4,8 17,7 Zuiden 43,4 1007,0 91 - 25
11:15 6,2 4,8 14,5 ZZO 51,5 1007,0 91 - 32
11:20 6,2 4,8 14,5 ZW 51,5 1007,0 91 - 25
11:25 6,2 4,8 32,2 WZW 51,5 1006,7 91 - 23
11:30 6,3 4,9 11,3 ZZW 37,0 1006,7 91 - 25
11:35 6,2 4,8 19,3 ZZW 38,6 1006,7 91 - 19
11:40 6,2 4,8 17,7 WZW 38,6 1006,3 91 - 32
11:45 6,2 4,8 27,4 ZW 38,6 1006,7 91 - 32
11:50 6,2 4,8 25,7 ZZW 43,4 1006,3 91 - 28
11:55 6,2 4,8 20,9 ZW 43,4 1006,3 91 - 26
12:00 6,2 4,8 9,7 ZW 43,4 1006,3 91 0,30 32
12:05 6,2 4,8 11,3 ZZW 38,6 1006,0 91 0,30 23
12:10 6,3 4,9 27,4 ZZO 38,6 1006,0 91 0,50 16
12:15 6,3 4,9 22,5 ZW 40,2 1006,0 91 0,50 18
12:20 6,4 5,0 17,7 ZW 40,2 1006,0 91 0,50 18
12:25 6,4 5,0 22,5 Zuiden 43,4 1005,6 91 0,80 21
12:30 6,4 5,0 14,5 ZZW 43,4 1005,6 91 0,80 23
12:35 6,5 5,1 27,4 ZW 43,4 1005,6 91 0,80 26
12:40 6,5 5,1 25,7 ZW 43,4 1005,3 91 1,00 33
12:45 6,6 5,2 25,7 ZZW 43,4 1005,3 91 1,00 35
12:50 6,6 5,2 27,4 ZZW 43,4 1005,3 91 1,00 21
12:55 6,6 5,2 19,3 ZZW 43,4 1005,0 91 1,00 16
13:00 6,6 5,2 17,7 ZZW 40,2 1005,0 91 0,80 19
13:05 6,7 5,3 35,4 ZW 41,8 1005,0 91 0,80 30
13:10 6,7 5,3 16,1 ZZW 41,8 1005,0 91 0,80 26
13:15 6,7 5,3 22,5 ZZW 43,4 1005,0 91 1,00 25
13:20 6,7 5,3 17,7 ZW 43,4 1004,6 91 0,80 23
13:25 6,7 5,3 30,6 WZW 43,4 1005,0 91 0,50 25
13:30 6,7 5,2 22,5 Westen 43,4 1004,3 90 0,50 30
13:35 6,8 5,3 29,0 ZW 43,4 1004,3 90 0,80 26
13:40 6,9 5,4 30,6 ZW 38,6 1004,3 90 0,50 25
13:45 6,9 5,5 11,3 Zuiden 43,4 1004,3 91 0,50 23
13:50 7,0 5,5 35,4 ZW 43,4 1004,3 90 0,50 18
13:55 7,1 5,6 14,5 ZW 45,1 1004,3 90 0,50 18
14:00 7,1 5,6 22,5 ZW 45,1 1003,9 90 0,50 19
14:05 7,1 5,6 16,1 Westen 45,1 1003,9 90 0,50 19
14:10 7,2 5,8 29,0 ZW 35,4 1003,9 91 0,30 21
14:15 7,2 5,8 16,1 WZW 38,6 1003,9 91 0,30 16
14:20 7,3 5,9 20,9 ZZW 41,8 1003,9 91 0,30 16
14:25 7,3 5,9 25,7 WZW 43,4 1003,6 91 0,30 16
14:30 7,3 5,9 25,7 ZW 43,4 1003,6 91 0,30 11
14:35 7,4 6,0 24,1 Westen 43,4 1003,6 91 - 12
14:40 7,5 6,1 27,4 ZW 51,5 1003,6 91 - 12
14:45 7,6 6,2 12,9 WZW 51,5 1003,6 91 - 12
14:50 7,6 6,2 16,1 ZW 51,5 1003,3 91 - 14
14:55 7,6 6,2 19,3 Zuiden 40,2 1003,3 91 - 19
15:00 7,6 6,2 20,9 ZW 40,2 1002,9 91 - 19
15:05 7,6 6,2 32,2 ZW 40,2 1002,9 91 0,30 18

Download your copy of this data-set  here

Our weather-data as stored at Weather Underground. Script ontwikkeld door Jim McMurry. Aangepast voor de template door Leuven-Template.eu

U vindt ons ook hier:

Het Weer Aktueel

UK Metoffice

European Weather Network

Weather Underground

Benelux Weer Netwerk

AWEKAS